Queralbs





Hora UTC 21:15
Temperatura -2.4 ºC
Humitat 46.0 %
Pressió 1002.5 hPa
Pluja 0.2 mm
Velocitat vent 0.0 km/h
Direcció vent WNW
Radiació solar 0.0 W/m²

Dades diàries 2021-11-27



Hora UTC (hivern +1h; estiu +2h)
Temperatura (ºC) Humitat (%) Pressió (hPa) Velocitat vent (km/h) Precipitació (mm) Radiació solar (W/m²)
Hora UTC Aire Humitat Pressió Vel. Dir. Vel. Max Dir. Intent. màx 5 min. Rad. Sol.
00:05 -0.5 59.0 1002.4 0.0 N 0.0 0.0 0.0
00:10 -0.6 58.0 1002.4 0.0 N 3.2 0.0 0.0
00:15 -0.6 59.0 1002.1 0.0 N 0.0 0.0 0.0
00:20 -0.5 59.0 1002.0 0.0 N 0.0 0.0 0.0
00:25 -0.4 59.0 1002.1 0.0 N 1.6 0.0 0.0
00:30 -0.3 58.0 1002.1 1.6 N 4.8 0.0 0.0
00:35 -0.3 59.0 1002.0 0.0 N 4.8 0.0 0.0
00:40 -0.2 59.0 1001.8 0.0 N 3.2 0.0 0.0
00:45 -0.1 59.0 1001.8 0.0 N 1.6 0.0 0.0
00:50 -0.1 59.0 1001.8 0.0 N 0.0 0.0 0.0
00:55 -0.1 57.0 1001.5 0.0 N 0.0 0.0 0.0
01:00 -0.1 56.0 1001.4 0.0 N 0.0 0.0 0.0
01:05 -0.1 55.0 1001.4 0.0 N 0.0 0.0 0.0
01:10 -0.2 56.0 1001.3 0.0 N 0.0 0.0 0.0
01:15 -0.3 56.0 1001.2 0.0 N 4.8 0.0 0.0
01:20 -0.3 56.0 1001.1 0.0 N 4.8 0.0 0.0
01:25 -0.5 58.0 1001.2 0.0 N 3.2 0.0 0.0
01:30 -0.7 58.0 1001.1 0.0 N 0.0 0.0 0.0
01:35 -0.9 59.0 1000.9 3.2 N 3.2 0.0 0.0
01:40 -1.1 60.0 1000.9 1.6 N 4.8 0.0 0.0
01:45 -1.2 60.0 1000.9 0.0 N 4.8 0.0 0.0
01:50 -1.3 60.0 1000.9 0.0 N 1.6 0.0 0.0
01:55 -1.4 60.0 1001.0 0.0 N 0.0 0.0 0.0
02:00 -1.5 60.0 1001.0 1.6 N 3.2 0.0 0.0
02:00 -1.4 60.0 1000.9 0.0 N 3.2 0.0 0.0
02:05 -1.5 60.0 1000.7 0.0 N 3.2 0.0 0.0
02:10 -1.6 60.0 1000.6 0.0 N 3.2 0.0 0.0
02:15 -1.6 61.0 1000.6 4.8 NNW 6.4 0.0 0.0
02:20 -1.5 59.0 1000.4 6.4 W 9.7 0.0 0.0
02:25 -1.2 57.0 1000.4 3.2 W 9.7 0.0 0.0
02:30 -1.2 57.0 1000.3 0.0 W 6.4 0.0 0.0
02:35 -1.2 57.0 1000.4 0.0 W 3.2 0.0 0.0
02:40 -1.2 58.0 1000.3 0.0 W 3.2 0.0 0.0
02:45 -1.3 58.0 1000.3 0.0 W 3.2 0.0 0.0
02:50 -1.4 59.0 1000.2 1.6 W 3.2 0.0 0.0
02:55 -1.6 59.0 1000.1 0.0 W 3.2 0.0 0.0
03:00 -1.6 60.0 999.9 0.0 W 1.6 0.0 0.0
03:05 -1.7 60.0 999.9 0.0 W 3.2 0.0 0.0
03:10 -1.8 61.0 999.9 0.0 W 3.2 0.0 0.0
03:15 -1.8 60.0 999.9 1.6 W 3.2 0.0 0.0
03:20 -1.8 60.0 999.8 0.0 W 4.8 0.0 0.0
03:30 -1.8 59.0 999.8 0.0 W 4.8 0.0 0.0
03:35 -1.7 59.0 999.8 0.0 W 3.2 0.0 0.0
03:40 -1.8 59.0 999.7 1.6 W 4.8 0.0 0.0
03:45 -1.8 59.0 999.6 0.0 W 4.8 0.0 0.0
03:50 -1.8 60.0 999.6 4.8 W 4.8 0.0 0.0
03:55 -1.9 61.0 999.6 0.0 W 4.8 0.0 0.0
04:00 -2.0 61.0 999.6 0.0 W 0.0 0.0 0.0
04:05 -1.9 60.0 999.4 1.6 W 4.8 0.0 0.0
04:10 -1.8 60.0 999.3 3.2 WNW 4.8 0.0 0.0
04:15 -1.8 59.0 999.3 0.0 WNW 4.8 0.0 0.0
04:20 -1.7 59.0 999.3 0.0 WNW 4.8 0.0 0.0
04:25 -1.7 59.0 999.1 0.0 WNW 1.6 0.0 0.0
04:30 -1.7 59.0 999.0 0.0 WNW 0.0 0.0 0.0
04:35 -1.7 59.0 999.0 3.2 WNW 4.8 0.0 0.0
04:40 -1.7 60.0 999.1 1.6 NW 6.4 0.0 0.0
04:45 -1.8 59.0 998.9 3.2 NW 3.2 0.0 0.0
04:50 -1.9 60.0 998.9 0.0 NW 3.2 0.0 0.0
04:55 -1.8 59.0 998.7 3.2 NW 4.8 0.0 0.0
04:55 -1.7 59.0 998.6 0.0 NW 4.8 0.0 0.0
05:05 -1.7 59.0 998.6 0.0 NW 4.8 0.0 0.0
05:10 -1.7 59.0 998.6 0.0 NW 1.6 0.0 0.0
05:15 -1.6 58.0 998.6 0.0 NW 1.6 0.0 0.0
05:20 -1.6 58.0 998.6 0.0 NW 1.6 0.0 0.0
05:25 -1.6 58.0 998.3 0.0 NW 1.6 0.0 0.0
05:30 -1.7 59.0 998.1 0.0 NW 0.0 0.0 0.0
05:35 -1.6 59.0 998.0 0.0 NW 3.2 0.0 0.0
05:35 -1.6 59.0 998.0 0.0 NW 3.2 0.0 0.0
05:45 -1.6 58.0 998.0 0.0 NW 3.2 0.0 0.0
05:50 -1.4 58.0 998.0 0.0 NW 3.2 0.0 0.0
05:55 -1.4 58.0 998.0 0.0 NW 3.2 0.0 0.0
06:00 -1.3 58.0 998.0 0.0 NW 3.2 0.0 0.0
06:00 -1.3 58.0 998.0 0.0 NW 3.2 0.0 0.0
06:10 -1.3 59.0 997.9 0.0 NW 3.2 0.0 0.0
06:15 -1.4 59.0 997.8 0.0 NW 3.2 0.0 0.0
06:20 -1.5 60.0 997.9 0.0 NW 1.6 0.0 0.0
06:25 -1.6 60.0 997.9 0.0 NW 1.6 0.0 0.0
06:30 -1.6 60.0 997.9 0.0 NW 1.6 0.0 0.0
06:35 -1.7 60.0 997.8 0.0 NW 1.6 0.0 0.0
06:40 -1.8 61.0 998.0 0.0 NW 0.0 0.0 0.0
06:45 -1.9 61.0 997.8 0.0 NW 0.0 0.0 0.0
06:50 -2.1 61.0 997.9 0.0 NW 0.0 0.0 0.0
06:55 -2.2 62.0 997.8 1.6 NW 1.6 0.0 0.0
07:00 -2.3 62.0 998.0 0.0 NW 1.6 0.0 0.0
07:00 -2.3 62.0 997.8 0.0 NW 1.6 0.0 0.0
07:10 -2.4 63.0 997.9 0.0 NW 0.0 0.0 0.0
07:15 -2.4 63.0 998.1 0.0 NW 0.0 0.0 0.0
07:20 -2.3 63.0 998.1 0.0 NW 1.6 0.0 0.0
07:25 -2.3 63.0 998.0 3.2 NW 4.8 0.0 0.0
07:30 -2.2 64.0 998.0 0.0 NW 4.8 0.0 0.0
07:35 -2.1 64.0 997.9 3.2 NW 6.4 0.0 0.0
07:40 -2.1 64.0 998.0 0.0 NW 6.4 0.0 0.0
07:45 -2.0 64.0 998.0 0.0 NW 3.2 0.0 0.0
07:50 -1.9 64.0 998.1 0.0 NW 0.0 0.0 0.0
07:55 -1.8 63.0 998.0 0.0 NW 3.2 0.0 0.0
08:00 -1.6 64.0 998.2 0.0 NW 3.2 0.0 0.0
08:05 -1.1 63.0 998.2 0.0 NW 3.2 0.0 0.0
08:10 -0.6 63.0 998.1 0.0 NW 3.2 0.0 0.0
08:15 -0.4 60.0 998.0 1.6 NW 6.4 0.0 0.0
08:20 -0.4 59.0 998.2 1.6 NW 6.4 0.0 0.0
08:25 -0.2 59.0 998.0 0.0 NW 4.8 0.0 0.0
08:30 0.0 59.0 998.1 0.0 NW 3.2 0.0 0.0
08:35 0.3 59.0 998.2 1.6 NW 4.8 0.0 0.0
08:40 0.3 58.0 998.2 0.0 NW 4.8 0.0 0.0
08:45 0.4 58.0 998.1 0.0 NW 3.2 0.0 0.0
08:45 0.6 58.0 998.0 0.0 NW 3.2 0.0 0.0
08:55 0.8 57.0 998.1 0.0 NW 0.0 0.0 0.0
09:00 1.2 57.0 997.8 0.0 NW 1.6 0.0 0.0
09:05 1.5 55.0 998.0 0.0 NW 3.2 0.0 0.0
09:10 1.7 55.0 998.1 0.0 NW 3.2 0.0 0.0
09:15 2.0 56.0 998.0 1.6 NW 1.6 0.0 0.0
09:15 2.2 56.0 997.9 1.6 NW 1.6 0.0 0.0
09:20 2.4 54.0 997.9 0.0 NW 1.6 0.0 0.0
09:25 2.6 55.0 998.0 3.2 NW 3.2 0.0 0.0
09:30 2.8 56.0 997.9 0.0 NW 3.2 0.0 0.0
09:35 3.1 56.0 997.9 3.2 NW 3.2 0.0 0.0
09:40 3.2 55.0 997.9 1.6 NW 4.8 0.0 0.0
09:45 3.2 55.0 998.0 0.0 NW 4.8 0.0 0.0
09:50 3.2 52.0 997.9 0.0 NW 3.2 0.0 0.0
09:55 3.2 51.0 997.9 0.0 NW 0.0 0.0 0.0
10:05 3.3 51.0 998.0 4.8 SW 8.0 0.0 0.0
10:10 3.4 51.0 998.2 0.0 SSW 8.0 0.0 0.0
10:15 3.6 53.0 998.1 6.4 SSW 6.4 0.0 0.0
10:20 3.5 52.0 998.0 0.0 SSW 8.0 0.0 0.0
10:25 3.4 51.0 998.1 0.0 SSW 3.2 0.0 0.0
10:30 3.4 51.0 998.2 4.8 SSW 4.8 0.0 0.0
10:35 3.3 54.0 998.3 1.6 SSW 6.4 0.0 0.0
10:40 3.2 55.0 998.2 1.6 SSW 4.8 0.0 0.0
10:45 2.9 54.0 998.2 0.0 SSW 4.8 0.0 0.0
10:50 2.8 55.0 998.1 0.0 SSW 4.8 0.0 0.0
10:55 2.8 53.0 998.3 0.0 SSW 3.2 0.0 0.0
11:00 2.8 50.0 998.2 1.6 SSW 3.2 0.0 0.0
11:05 2.9 52.0 998.5 3.2 SSW 6.4 0.0 0.0
11:10 2.9 51.0 998.7 3.2 S 6.4 0.0 0.0
11:15 2.8 52.0 998.7 3.2 S 4.8 0.0 0.0
11:20 2.7 54.0 998.8 1.6 NE 12.9 0.0 0.0
11:20 2.4 57.0 998.9 12.9 N 35.4 0.0 0.0
11:30 1.9 59.0 999.0 1.6 N 35.4 0.0 0.0
11:35 1.7 60.0 998.9 0.0 WNW 14.5 0.0 0.0
11:40 1.6 60.0 998.8 3.2 WNW 4.8 0.0 0.0
11:45 1.5 61.0 998.5 6.4 SSW 6.4 0.2 0.0
11:50 1.4 62.0 998.7 0.0 SSW 8.0 0.0 0.0
11:55 1.3 62.0 998.7 1.6 SSW 8.0 0.0 0.0
12:00 1.3 62.0 998.8 12.9 SSW 14.5 0.0 0.0
12:05 1.2 61.0 998.6 4.8 SSW 14.5 0.0 0.0
12:10 1.2 60.0 998.7 3.2 ENE 8.0 0.0 0.0
12:15 1.2 61.0 998.7 4.8 SE 9.7 0.0 0.0
12:20 1.1 63.0 999.0 3.2 SSE 16.1 0.0 0.0
12:25 1.0 64.0 999.0 0.0 SSE 12.9 0.0 0.0
12:30 0.9 64.0 998.6 0.0 SSE 9.7 0.0 0.0
12:35 0.9 63.0 998.8 6.4 SSE 6.4 0.0 0.0
12:40 1.0 63.0 998.8 0.0 SSE 8.0 0.0 0.0
12:45 1.0 63.0 998.7 1.6 SE 11.3 0.0 0.0
12:50 1.1 64.0 998.4 1.6 SE 11.3 0.0 0.0
12:55 1.1 64.0 998.4 1.6 SE 11.3 0.0 0.0
13:00 1.2 64.0 998.3 1.6 E 11.3 0.0 0.0
13:05 1.2 63.0 998.3 6.4 NE 9.7 0.0 0.0
13:10 1.3 63.0 998.3 1.6 NE 9.7 0.0 0.0
13:15 1.4 62.0 998.1 1.6 S 11.3 0.0 0.0
13:20 1.6 62.0 998.0 3.2 ESE 12.9 0.0 0.0
13:25 1.7 61.0 998.1 3.2 S 12.9 0.0 0.0
13:25 1.8 61.0 998.0 1.6 SE 9.7 0.0 0.0
13:35 1.9 60.0 998.2 6.4 SSW 9.7 0.0 0.0
13:40 2.2 59.0 997.9 9.7 SSE 9.7 0.0 0.0
13:45 2.6 55.0 997.6 9.7 SSW 17.7 0.0 0.0
13:50 2.9 51.0 998.1 4.8 SSW 17.7 0.0 0.0
13:55 3.3 41.0 997.7 6.4 S 25.7 0.0 0.0
14:00 3.4 41.0 997.9 8.0 NE 24.1 0.0 0.0
14:05 3.3 34.0 997.9 1.6 E 19.3 0.0 0.0
14:10 3.6 35.0 997.8 3.2 E 19.3 0.0 0.0
14:15 3.7 32.0 998.0 6.4 S 22.5 0.0 0.0
14:20 3.8 29.0 998.5 1.6 ENE 20.9 0.0 0.0
14:25 3.8 29.0 998.5 4.8 NNE 20.9 0.0 0.0
14:30 3.6 28.0 998.6 6.4 E 16.1 0.0 0.0
14:35 3.3 26.0 998.7 9.7 NE 20.9 0.0 0.0
14:40 2.9 26.0 999.3 3.2 ENE 20.9 0.0 0.0
14:45 2.6 26.0 999.1 8.0 E 12.9 0.0 0.0
14:50 2.4 25.0 998.9 4.8 NNE 9.7 0.0 0.0
14:55 2.3 28.0 999.3 3.2 NNW 17.7 0.0 0.0
15:00 2.2 34.0 999.2 1.6 NNW 17.7 0.0 0.0
15:05 1.9 25.0 999.1 4.8 SSE 9.7 0.0 0.0
15:10 1.9 24.0 999.2 9.7 ENE 14.5 0.0 0.0
15:15 1.9 25.0 999.4 6.4 SSE 14.5 0.0 0.0
15:20 1.8 23.0 999.3 6.4 SE 16.1 0.0 0.0
15:25 1.8 25.0 999.3 3.2 S 16.1 0.0 0.0
15:30 1.7 25.0 999.4 0.0 S 12.9 0.0 0.0
15:35 1.5 28.0 999.6 0.0 S 4.8 0.0 0.0
15:40 1.4 32.0 999.6 1.6 SSW 6.4 0.0 0.0
15:45 1.2 30.0 999.7 1.6 SSW 6.4 0.0 0.0
15:50 0.9 29.0 999.7 0.0 SSW 6.4 0.0 0.0
15:55 0.7 37.0 999.8 3.2 SSW 6.4 0.0 0.0
16:00 0.4 34.0 999.9 4.8 S 12.9 0.0 0.0
16:05 0.3 37.0 1000.0 3.2 NE 9.7 0.0 0.0
16:10 0.3 34.0 1000.1 0.0 NE 9.7 0.0 0.0
16:15 0.2 35.0 1000.0 6.4 SW 6.4 0.0 0.0
16:15 0.1 33.0 1000.0 8.0 SW 12.9 0.0 0.0
16:25 0.3 35.0 1000.0 3.2 SW 14.5 0.0 0.0
16:30 0.2 37.0 1000.2 4.8 SSW 6.4 0.0 0.0
16:35 -0.1 32.0 1000.1 3.2 SW 6.4 0.0 0.0
16:40 -0.2 38.0 1000.0 4.8 SSW 8.0 0.0 0.0
16:45 -0.3 35.0 1000.2 4.8 WSW 9.7 0.0 0.0
16:50 -0.2 36.0 1000.3 0.0 WNW 16.1 0.0 0.0
16:55 -0.2 31.0 1000.3 1.6 WSW 16.1 0.0 0.0
17:00 -0.1 33.0 1000.2 4.8 W 9.7 0.0 0.0
17:05 -0.2 31.0 1000.2 0.0 NNW 12.9 0.0 0.0
17:10 -0.1 29.0 1000.3 6.4 NE 12.9 0.0 0.0
17:15 0.1 34.0 1000.1 8.0 SE 12.9 0.0 0.0
17:20 0.0 32.0 1000.2 3.2 NE 11.3 0.0 0.0
17:25 0.0 31.0 1000.4 4.8 NNE 9.7 0.0 0.0
17:30 0.1 30.0 1000.4 3.2 E 17.7 0.0 0.0
17:35 0.1 32.0 1000.7 4.8 NE 9.7 0.0 0.0
17:40 -0.1 35.0 1000.7 0.0 ESE 9.7 0.0 0.0
17:45 -0.3 38.0 1000.5 14.5 NW 14.5 0.0 0.0
17:50 -0.4 36.0 1001.0 1.6 WSW 19.3 0.0 0.0
17:55 -0.3 34.0 1001.1 4.8 N 19.3 0.0 0.0
18:00 -0.3 33.0 1001.4 6.4 NW 9.7 0.0 0.0
18:05 -0.3 35.0 1001.4 0.0 WNW 8.0 0.0 0.0
18:10 -0.3 33.0 1001.3 3.2 WSW 8.0 0.0 0.0
18:15 -0.3 36.0 1001.4 4.8 SW 8.0 0.0 0.0
18:20 -0.5 35.0 1001.6 3.2 W 9.7 0.0 0.0
18:25 -0.5 38.0 1001.7 3.2 W 9.7 0.0 0.0
18:30 -0.6 38.0 1001.6 1.6 W 4.8 0.0 0.0
18:35 -0.7 36.0 1001.6 6.4 SW 12.9 0.0 0.0
18:40 -0.7 38.0 1001.6 3.2 SW 12.9 0.0 0.0
18:45 -0.8 36.0 1001.6 4.8 WNW 6.4 0.0 0.0
18:50 -0.8 35.0 1001.8 3.2 NW 6.4 0.0 0.0
18:55 -0.8 39.0 1001.8 0.0 NW 6.4 0.0 0.0
19:00 -0.8 35.0 1001.8 0.0 WNW 11.3 0.0 0.0
19:05 -0.8 38.0 1002.0 0.0 WNW 11.3 0.0 0.0
19:10 -1.1 38.0 1001.9 0.0 WNW 3.2 0.0 0.0
19:15 -1.1 37.0 1001.9 0.0 WNW 3.2 0.0 0.0
19:20 -1.1 38.0 1001.9 1.6 WNW 3.2 0.0 0.0
19:25 -1.2 39.0 1001.9 3.2 WNW 4.8 0.0 0.0
19:30 -1.3 39.0 1002.1 1.6 WNW 11.3 0.0 0.0
19:35 -1.3 43.0 1002.1 0.0 WNW 6.4 0.0 0.0
19:40 -1.4 38.0 1002.1 3.2 WNW 6.4 0.0 0.0
19:45 -1.4 40.0 1002.1 0.0 WNW 6.4 0.0 0.0
19:50 -1.4 42.0 1002.3 0.0 WNW 4.8 0.0 0.0
19:55 -1.6 46.0 1002.3 1.6 WNW 3.2 0.0 0.0
20:00 -1.8 44.0 1002.3 1.6 WNW 4.8 0.0 0.0
20:05 -1.9 44.0 1002.3 3.2 WNW 4.8 0.0 0.0
20:10 -2.0 43.0 1002.3 3.2 WNW 4.8 0.0 0.0
20:15 -2.1 44.0 1002.3 0.0 WNW 4.8 0.0 0.0
20:20 -2.2 45.0 1002.4 0.0 WNW 4.8 0.0 0.0
20:25 -2.3 44.0 1002.6 1.6 WNW 6.4 0.0 0.0
20:30 -2.2 47.0 1002.5 0.0 WNW 6.4 0.0 0.0
20:35 -2.2 45.0 1002.5 3.2 WNW 4.8 0.0 0.0
20:40 -2.2 44.0 1002.5 3.2 WNW 6.4 0.0 0.0
20:45 -2.1 43.0 1002.5 0.0 WNW 6.4 0.0 0.0
20:50 -1.9 44.0 1002.4 0.0 WNW 6.4 0.0 0.0
20:55 -2.1 45.0 1002.4 1.6 WNW 3.2 0.0 0.0
21:00 -2.2 47.0 1002.6 0.0 WNW 3.2 0.0 0.0
21:05 -2.3 46.0 1002.6 1.6 WNW 6.4 0.0 0.0
21:10 -2.4 46.0 1002.4 0.0 WNW 6.4 0.0 0.0
21:15 -2.4 46.0 1002.5 0.0 WNW 3.2 0.0 0.0
Màxima 3.8 64.0 1002.6 14.5 NW 35.4 0.2 0.0
Mínima -2.4 23.0 997.6
Total 0.2